SS3 DEB (55737 NORAD) Tracking and Keplerian Element Data

This shows tracking and keplerian element data for the satellite.

Feedback or suggestion? Click here.




ElementValue
Catalog55737
NameSS3 DEB
Epoch Orbit265
Epoch Day60.08618434
Epoch Year2023
RAAN351.4439
Inclination37.2095
Eccentricity0.0042986
Argument of Perigee169.8087
Mean Anonmoly190.3566
Mean Motion15.80747129
Decay Rate0.01518306
L11 55737U 23019H 23060.08618434 .01518306 00000+0 62218-2 0 9991
L22 55737 37.2095 351.4439 0042986 169.8087 190.3566 15.80747129 2659



Live tracking and technical data element details for SS3 DEB (NORAD 55737). SS3 DEB can be tracked NOW for your location showing map with azimuth and elevation plus other details from your city location.







IsCatalogInMostPopularTable: catalog: 55737, numindb: 5
Update: records affected: 1



GetName: 55737 SS3 DEB

Hit Count: updated at: Wed, 22 Mar 2023 17:08:33 GMT